Current Version              Previous Version:    01  02  03  04  05  06  07  08  09  10  11  12  13  14  15  16  17  18  19  20  21  22  23  24  25  26  27  28  29  30  
   31  32  33  34  35  36  37  38  39  40  41  42  43  44  45  46  47  48  49  50  51  52  53  54  55  56  57  58  59  60  

[Printable]
281
ASUS44 KFWD 260903
RWRTX
NORTH TEXAS HOURLY WEATHER ROUNDUP
NATIONAL WEATHER SERVICE FORT WORTH TX
300 AM CST WED NOV 26 2014

NOTE: "FAIR" INDICATES FEW OR NO CLOUDS BELOW 12,000 FEET WITH NO
SIGNIFICANT WEATHER AND/OR OBSTRUCTIONS TO VISIBILITY.

TXZ118-119-261000-
DALLAS/FORT WORTH METROPLEX

CITY           SKY/WX    TMP DP  RH WIND       PRES   REMARKS
DFW AIRPORT    PTCLDY    41  30  65 S12       30.05S WCI  34
DALLAS LOVE    PTCLDY    47  31  53 SW6       30.07R
FTW MEACHAM    CLEAR     47  29  49 S9        30.05S
DAL-EXECUTIVE  CLEAR     50  26  39 VRB6      30.06S
FTW-ALLIANCE   PTCLDY    44  28  53 S8        30.04S WCI  39
FTW-SPINKS     CLEAR     48  28  46 SW10      30.08S
ARLINGTON      CLEAR     41  29  62 S6        30.07R WCI  37
GRAND PRAIRIE  CLEAR     42  32  67 S6        30.09S WCI  39
ADDISON        CLEAR     49  33  55 S7        30.08S
MESQUITE       CLEAR     37  29  74 S6        30.08S WCI  32
LANCASTER      CLEAR     43  27  53 SW5       30.09R
$$

TXZ091>094-102>105-117-120-121-131>134-261000-
NORTH CENTRAL TEXAS

CITY           SKY/WX    TMP DP  RH WIND       PRES   REMARKS
SHRMAN/DENISON PTCLDY    49  31  50 S14       30.03S
GAINESVILLE    CLEAR     37  30  78 S5        30.05S WCI  33
BRIDGEPORT     CLEAR     46  29  51 SW8       30.05S
DECATUR        FAIR      46  26  46 SW12      30.03S
DENTON         CLEAR     42  31  64 S9        30.04S WCI  37
MCKINNEY       CLEAR     36  29  75 S7        30.06S WCI  30
GREENVILLE     PTCLDY    36  32  87 S6        30.07F WCI  31
ROCKWALL       CLEAR     44  31  59 S10       30.06F WCI  38
TERRELL        CLEAR     41  30  65 S3        30.09F
WAXAHACHIE     CLEAR     44  31  62 S7        30.09S WCI  40
CLEBURNE       CLEAR     41  30  65 SE6       30.09S WCI  37
GRANBURY       CLEAR     48  28  46 S8        30.08R
$$

TXZ083>090-098>101-113>116-127>130-139>142-154-155-261000-
WESTERN NORTH TEXAS

CITY           SKY/WX    TMP DP  RH WIND       PRES   REMARKS
WICHITA FALLS  CLEAR     41  27  57 SW13      29.99S WCI  34
WF-KICKAPOO    CLEAR     43  27  52 SW6       30.02R WCI  40
VERNON         MOCLDY    37  27  65 SW8       29.99F WCI  31
ABILENE        CLEAR     44  21  40 S9        30.09R WCI  39
ABILENE-DYESS  CLEAR     49  18  29 SW9       30.07R
MINERAL WELLS  CLEAR     37  29  72 SE5       30.05R WCI  33
STEPHENVILLE   CLEAR     45  28  50 SW9       30.10S WCI  40
COMANCHE       CLEAR     47  27  44 SW17G26   30.09R
COLEMAN        CLEAR     44  28  53 SW13      30.11R WCI  37
BRADY          CLEAR     45  25  45 SW12      30.11S WCI  39
$$

TXZ143>147-156>162-174-175-261000-
CENTRAL TEXAS

CITY           SKY/WX    TMP DP  RH WIND       PRES   REMARKS
WACO           CLEAR     41  34  76 S12       30.11S WCI  34
WACO-MCGREGOR  CLEAR     39  28  65 S7        30.12S WCI  34
HILLSBORO      CLEAR     41  30  64 S6        30.08F WCI  38
CORSICANA      CLEAR     43  31  62 S7        30.11F WCI  39
MEXIA          CLEAR     41  32  69 S6        30.12R WCI  37
HEARNE         CLEAR     42  34  72 CALM      30.16F
CAMERON        CLEAR     45  34  65 S13       30.14F WCI  39
TEMPLE         CLEAR     36  28  75 S8        30.11F WCI  29
KILLEEN        CLEAR     47  26  45 SW8       30.11F
KILLEEN-SKYLRK CLEAR     43  27  52 SW7       30.11F WCI  39
FORT HOOD      CLEAR     46  28  49 S6        30.11F
GATESVILLE     CLEAR     46  28  49 SW12      30.12F
HAMILTON       CLEAR     46  28  49 SW17      30.11S WCI  38
LAMPASAS       CLEAR     41  30  64 SW3       30.11F
$$

TXZ095>097-106>112-122>126-135>138-148>153-164>167-261000-
EAST TEXAS

CITY           SKY/WX    TMP DP  RH WIND       PRES   REMARKS
PARIS          MOCLDY    37  28  70 SE7       30.06F WCI  32
SULPHUR SPRNGS MOCLDY    47  31  53 S10       30.09F
MOUNT PLEASANT MOCLDY    37  32  81 CALM      30.12S
MINEOLA        PTCLDY    48  30  49 S7        30.11S
TYLER          PTCLDY    42  32  67 S9        30.12R WCI  37
LONGVIEW       CLEAR     43  33  68 S9        30.12S WCI  38
MARSHALL       CLEAR     38  36  91 CALM      30.15S
ATHENS         CLEAR     36  32  87 CALM      30.11F
PALESTINE      CLEAR     42  32  68 SE5       30.15S WCI  39
JACKSONVILLE   CLEAR     46  30  54 S8        30.15S
HENDERSON      FAIR      35  35  96 CALM      30.15S
NACOGDOCHES    CLEAR     37  32  81 CALM      30.17S
LUFKIN         CLEAR     46  34  62 S6        30.18R
$$

SUPPLEMENTAL OBSERVATIONS (CENTRAL)

CITY           SKY/WX    TMP DP  RH WIND       PRES   REMARKS
$$

SUPPLEMENTAL OBSERVATIONS (WEST)

CITY           SKY/WX    TMP DP  RH WIND       PRES   REMARKS
$$

SUPPLEMENTAL OBSERVATIONS (EAST)

CITY           SKY/WX    TMP DP  RH WIND       PRES   REMARKS
$$

SUPPLEMENTAL OBSERVATIONS ARE A COLLECTION OF AUTOMATED INSTRUMENTS
THAT ARE MAINTAINED BY A VARIETY OF FEDERAL AND STATE AGENCIES.
CERTAIN ELEMENTS...SUCH AS HUMIDITY VALUES AND SUSTAINED WIND
SPEEDS...MAY BE APPROXIMATED.